User: anonymous   Login
Location: Unspecified
(0.0000°N, 0.0000°E)
Time: 18:14:36
(UTC+00:00)
Language:

NOAA 6 - Orbit

View from above orbital plane
View from above orbital plane
View from above satellite
View from above satellite

Ground track
Ground track

The orbit data is extracted from the following two-line orbital elements,

1 11416U 79057A   19083.83955318 +.00000006 +00000-0 +18134-4 0  9991
2 11416 098.6346 078.1321 0011101 136.8816 223.3239 14.33522147072364
Epoch (UTC): 24 March 2019 20:08:57
Eccentricity: 0.0011101
inclination: 98.6346°
perigee height: 772 km
apogee height: 788 km
right ascension of ascending node: 78.1321°
argument of perigee: 136.8816°
revolutions per day: 14.33522147
mean anomaly at epoch: 223.3239°
orbit number at epoch: 7236

The dashed part of the orbit path shows where the satellite is in the earth's shadow,  

DLR